Powrót do katalogu

DMSP 5D-2 F13 DEB

AktywnySSO
NORAD 40407·DEBRIS·🇺🇸 United States

Wystrzelony Mar 24, 1995 z Vandenberg Space Force Base

Loading…

Następne Przeloty (najbliższe 24 godziny)

TLE

ŚwieżeSource: Space-Track

Epoka: Sep 14, 2026, 12:08 UTC

1 40407U 95015U   26257.50597615  .00000154  00000-0  97402-4 0  9991
2 40407  98.8004 271.3971 0005080 254.6085 105.4529 14.17696929597178

Śledź DMSP 5D-2 F13 DEB w czasie rzeczywistym z AllMySat

Download on the App Store